This demonstration page uses our WeatherBlox Daily Observations layout. Learn more.

Left ArrowRight Arrow

Hourly Observations for August 26, 2019

Temp ( °F °C ) Dew Point ( °F °C ) Humidity (%) Winds ( mph kmh ) Pressure ( in mb ) Visibility ( mi km ) Precip ( " mm )
12:15 am 00:15 Partly Cloudy 68 20.2 60 15.6 75 75 ESE 7 11 29.97 1015 10 16 0.00 0.00
12:35 am 00:35 Cloudy 69 20.3 60 15.6 75 75 ESE 5 7 29.97 1015 10 16 0.00 0.00
12:55 am 00:55 Cloudy 69 20.5 60 15.5 73 73 SE 8 13 29.96 1015 10 16 0.00 0.00
1:15 am 01:15 Mostly Cloudy 69 20.5 60 15.6 74 74 ESE 6 9 29.95 1014 10 16 0.00 0.00
1:35 am 01:35 Mostly Cloudy 68 20.2 60 15.8 76 76 ESE 6 9 29.95 1014 10 16 0.00 0.00
1:55 am 01:55 Mostly Cloudy 68 20 61 16 78 78 ESE 7 11 29.94 1014 10 16 0.00 0.00
2:15 am 02:15 Partly Cloudy 67 19.6 61 16.1 80 80 ESE 6 9 29.94 1014 10 16 0.00 0.00
2:35 am 02:35 Partly Cloudy 67 19.3 62 16.4 83 83 SE 7 11 29.93 1013 10 16 0.00 0.00
2:55 am 02:55 Clear 67 19.5 61 16.3 82 82 SE 8 13 29.93 1013 10 16 0.00 0.00
3:15 am 03:15 Clear 67 19.5 62 16.4 82 82 SE 6 9 29.92 1013 10 16 0.00 0.00
3:35 am 03:35 Clear 67 19.5 62 16.5 83 83 SE 7 11 29.92 1013 10 16 0.00 0.00
3:55 am 03:55 Clear 67 19.2 62 16.6 85 85 ESE 6 9 29.92 1013 10 16 0.00 0.00
4:15 am 04:15 Clear 66 19.1 62 16.8 87 87 SE 7 11 29.92 1013 10 16 0.00 0.00
4:35 am 04:35 Clear 66 19.1 63 17 88 88 SE 6 9 29.92 1013 10 16 0.00 0.00
4:55 am 04:55 Mostly Cloudy with Light Rain 66 19 63 17.4 91 91 SE 6 9 29.92 1013 10 16 0.00 0.00
5:15 am 05:15 Partly Cloudy with Drizzle 65 18.5 64 17.9 96 96 SE 6 9 29.91 1013 10 16 0.00 0.00
5:35 am 05:35 Partly Cloudy with Drizzle 65 18.5 65 18.1 98 98 SE 6 9 29.91 1013 10 16 0.00 0.00
5:55 am 05:55 Cloudy with Light Rain 65 18.2 65 18.2 100 100 SE 5 7 29.91 1013 10 16 0.00 0.00
6:15 am 06:15 Cloudy with Drizzle 64 18 64 18 100 100 SE 6 9 29.90 1013 10 16 0.00 0.00
6:35 am 06:35 Cloudy with Light Rain 64 17.8 64 17.8 100 100 SE 6 9 29.90 1013 10 16 0.00 0.00
6:55 am 06:55 Cloudy with Rain 64 17.7 64 17.7 100 100 SE 6 9 29.91 1013 7 11 0.02 0.51
7:15 am 07:15 Cloudy with Rain 64 17.6 64 17.6 100 100 SE 3 6 29.90 1013 7 11 0.03 0.76
7:35 am 07:35 Cloudy with Light Rain 64 17.7 64 17.7 100 100 SE 6 9 29.90 1013 5 8 0.05 1.27
7:55 am 07:55 Cloudy with Heavy Rain 64 17.8 64 17.8 100 100 SSW 3 6 29.91 1013 2 2 0.17 4.32
8:15 am 08:15 Cloudy with Heavy Rain 64 18 64 18 100 100 SE 6 9 29.90 1013 1 2 0.18 4.57
8:35 am 08:35 Cloudy with Heavy Rain 65 18.3 65 18.3 100 100 SE 3 6 29.91 1013 1 2 0.36 9.14
8:55 am 08:55 Cloudy with Light Rain 66 18.8 66 18.8 100 100 SSE 7 11 29.90 1013 3 4 0.46 11.68
9:15 am 09:15 Cloudy with Light Rain 66 19.1 66 19.1 100 100 SSE 7 11 29.89 1012 10 16 0.00 0.00
9:35 am 09:35 Cloudy with Rain 67 19.6 67 19.6 100 100 SSE 7 11 29.89 1012 7 11 0.00 0.00
9:55 am 09:55 Cloudy with Rain 68 20 68 20 100 100 SSE 7 11 29.89 1012 7 11 0.02 0.51
10:15 am 10:15 Cloudy 68 20.2 68 20.2 100 100 SSE 6 9 29.89 1012 7 11 0.00 0.00
10:35 am 10:35 Cloudy with Light Rain 69 20.7 69 20.7 100 100 SSE 6 9 29.87 1012 7 11 0.01 0.25
10:55 am 10:55 Cloudy 69 20.7 69 20.7 100 100 SSE 6 9 29.87 1012 10 16 0.01 0.25
11:15 am 11:15 Cloudy with Mist and Fog 70 21 70 21 100 100 SSE 8 13 29.87 1012 5 8 0.00 0.00
11:35 am 11:35 Cloudy with Rain 70 21 70 21 100 100 SSE 8 13 29.87 1012 10 16 0.00 0.00
11:55 am 11:55 Cloudy with Light Rain 70 21.3 70 21.3 100 100 S 9 15 29.86 1011 10 16 0.01 0.25
12:15 pm 12:15 Cloudy with Light Rain 70 21.3 70 21.3 100 100 SSE 12 19 29.86 1011 10 16 0.01 0.25
12:35 pm 12:35 Cloudy with Light Rain 70 21.3 70 21.3 100 100 S 10 17 29.86 1011 10 16 0.01 0.25
12:55 pm 12:55 Cloudy with Rain 70 21 70 21 100 100 SSE 9 15 29.86 1011 7 11 0.01 0.25
1:15 pm 13:15 Cloudy with Rain 70 21 70 21 100 100 S 8 13 29.85 1011 7 11 0.03 0.76
1:35 pm 13:35 Cloudy with Light Rain 70 21 70 21 100 100 SSE 10 17 29.85 1011 5 8 0.09 2.29
1:55 pm 13:55 Cloudy with Drizzle 70 21 70 21 100 100 S 10 17 29.84 1011 7 11 0.09 2.29
2:15 pm 14:15 Cloudy with Rain 70 21 70 21 100 100 S 12 19 29.84 1011 7 11 0.01 0.25
2:35 pm 14:35 Cloudy with Rain 69 20.7 69 20.7 100 100 SSE 13 20 29.84 1011 10 16 0.02 0.51
2:55 pm 14:55 Cloudy with Light Rain 69 20.8 69 20.8 100 100 S 10 17 29.84 1011 7 11 0.02 0.51
3:15 pm 15:15 Cloudy with Drizzle 69 20.7 69 20.7 100 100 S 10 17 29.83 1010 4 6 0.00 0.00
3:35 pm 15:35 Cloudy with Light Rain 69 20.7 69 20.7 100 100 S 10 17 29.82 1010 7 11 0.00 0.00
3:55 pm 15:55 Cloudy with Light Rain 70 21 70 21 100 100 SSE 12 19 29.80 1009 10 16 0.00 0.00
4:15 pm 16:15 Cloudy with Rain 70 21.1 70 21.1 100 100 S 14 22 29.81 1010 10 16 0.00 0.00
4:35 pm 16:35 Cloudy 71 21.7 71 21.7 100 100 S 12 19 29.80 1009 10 16 0.00 0.00
4:55 pm 16:55 Cloudy 71 21.9 71 21.9 100 100 S 13 20 29.80 1009 10 16 0.00 0.00
5:15 pm 17:15 Cloudy 71 21.5 71 21.5 100 100 S 12 19 29.80 1009 10 16 0.00 0.00
5:35 pm 17:35 Cloudy with Mist and Fog 70 21 70 21 100 100 S 10 17 29.79 1009 5 8 0.00 0.00
5:55 pm 17:55 Cloudy 70 21 70 21 100 100 S 10 17 29.78 1009 10 16 0.00 0.00
6:15 pm 18:15 Cloudy 70 21.1 70 21.1 100 100 S 12 19 29.78 1009 10 16 0.00 0.00
6:35 pm 18:35 Cloudy 70 21 70 21 100 100 S 14 22 29.78 1009 10 16 0.00 0.00
6:55 pm 18:55 Cloudy 70 21.2 70 21.2 100 100 S 10 17 29.78 1009 10 16 0.00 0.00
7:15 pm 19:15 Cloudy 70 21.2 70 21.2 100 100 S 10 17 29.77 1008 10 16 0.00 0.00
7:35 pm 19:35 Cloudy 70 21.2 70 21.2 100 100 S 15 24 29.76 1008 10 16 0.00 0.00
7:55 pm 19:55 Cloudy 70 21.1 70 21.1 100 100 S 12 19 29.77 1008 10 16 0.00 0.00
8:15 pm 20:15 Cloudy 70 21 70 21 100 100 S 10 17 29.77 1008 10 16 0.00 0.00
8:35 pm 20:35 Cloudy 70 21 70 21 100 100 S 10 17 29.80 1009 10 16 0.00 0.00
8:55 pm 20:55 Cloudy 70 21 70 21 100 100 S 9 15 29.80 1009 10 16 0.00 0.00
9:15 pm 21:15 Cloudy 70 20.9 70 20.9 100 100 S 10 17 29.80 1009 7 11 0.00 0.00
9:35 pm 21:35 Cloudy 69 20.8 69 20.8 100 100 S 10 17 29.80 1009 10 16 0.00 0.00
9:55 pm 21:55 Cloudy 70 20.9 70 20.9 100 100 S 9 15 29.80 1009 10 16 0.00 0.00
10:15 pm 22:15 Cloudy 70 21 70 21 100 100 S 12 19 29.80 1009 10 16 0.00 0.00
10:35 pm 22:35 Cloudy 70 21 70 21 100 100 S 10 17 29.80 1009 10 16 0.00 0.00
10:55 pm 22:55 Cloudy with Nearby Thunderstorms 70 21.1 70 21.1 100 100 S 10 17 29.80 1009 10 16 0.00 0.00
11:15 pm 23:15 Cloudy with Thunderstorms 70 21.1 70 21.1 100 100 S 10 17 29.80 1009 10 16 0.00 0.00
11:35 pm 23:35 Cloudy 70 21.1 70 21.1 100 100 S 13 20 29.80 1009 10 16 0.00 0.00
11:50 pm 23:50 Cloudy 70 21.2 70 21.2 100 100 S 9 15 29.81 1010 10 16 0.00 0.00

Powered by AerisWeather